KE7YUP Weather Reports


time (UTC)temp
C
wind
direction
speed
KPH
gust
KPH
rain 1hr
cm
rain 24hr
cm
rain mn
cm
humidity
%
barometer
mb
20260504015815 20 2 6.4 9.7 0.00 0.00 0.00 19 1012.2
20260504014815 21 41 3.2 11.3 0.00 0.00 0.00 19 1012.5
20260504013815 21 10 1.6 4.8 0.00 0.00 0.00 18 1012.7
20260504012815 21 6 9.7 14.5 0.00 0.00 0.00 18 1011.9
20260504011815 21 38 11.3 16.1 0.00 0.00 0.00 19 1012.0
20260504010815 21 353 9.7 17.7 0.00 0.00 0.00 17 1012.1
20260504005815 21 344 3.2 8.0 0.00 0.00 0.00 17 1012.3
20260504004815 21 271 3.2 6.4 0.00 0.00 0.00 18 1012.4
20260504003815 21 154 1.6 3.2 0.00 0.00 0.00 16 1012.5
20260504002815 21 234 9.7 20.9 0.00 0.00 0.00 17 1013.1
20260504001815 21 208 19.3 29.0 0.00 0.00 0.00 17 1013.3
20260504000815 22 152 1.6 6.4 0.00 0.00 0.00 15 1013.4
20260503235815 22 164 6.4 9.7 0.00 0.00 0.00 16 1013.0
20260503234835 22 147 4.8 8.0 0.00 0.00 0.00 15 1013.3
20260503233815 22 166 4.8 9.7 0.00 0.00 0.00 15 1013.3
20260503232815 22 143 4.8 12.9 0.00 0.00 0.00 16 1013.2
20260503231815 22 90 4.8 14.5 0.00 0.00 0.00 15 1013.2
20260503230835 22 111 6.4 14.5 0.00 0.00 0.00 15 1013.3
20260503225817 22 72 4.8 9.7 0.00 0.00 0.00 15 1013.4
20260503224817 22 126 8.0 14.5 0.00 0.00 0.00 15 1013.4
20260503223817 22 94 11.3 19.3 0.00 0.00 0.00 15 1013.6
20260503222817 22 94 11.3 17.7 0.00 0.00 0.00 15 1013.7
20260503221817 22 93 6.4 12.9 0.00 0.00 0.00 16 1013.9
20260503220817 22 110 8.0 14.5 0.00 0.00 0.00 15 1014.0
20260503215817 22 95 11.3 19.3 0.00 0.00 0.00 13 1014.6
20260503214817 22 103 8.0 17.7 0.00 0.00 0.00 15 1014.8
20260503213816 21 79 12.9 17.7 0.00 0.00 0.00 14 1015.0
20260503212917 22 86 9.7 17.7 0.00 0.00 0.00 16 1015.3
20260503211817 21 111 12.9 19.3 0.00 0.00 0.00 16 1015.5
20260503210817 21 88 12.9 17.7 0.00 0.00 0.00 18 1015.8
20260503205817 21 100 12.9 17.7 0.00 0.00 0.00 17 1016.4
20260503204817 21 115 8.0 16.1 0.00 0.00 0.00 18 1016.6
20260503203817 21 97 8.0 17.7 0.00 0.00 0.00 17 1016.5
20260503202817 21 151 11.3 17.7 0.00 0.00 0.00 20 1016.6
20260503201817 21 113 9.7 16.1 0.00 0.00 0.00 21 1016.9
20260503200816 21 154 9.7 14.5 0.00 0.00 0.00 21 1017.1
20260503195837 21 96 12.9 19.3 0.00 0.00 0.00 21 1017.2
20260503194817 21 109 8.0 16.1 0.00 0.00 0.00 21 1017.4
20260503193816 20 135 9.7 14.5 0.00 0.00 0.00 21 1017.0
20260503192817 21 114 9.7 12.9 0.00 0.00 0.00 22 1017.5
20260503191816 20 142 9.7 14.5 0.00 0.00 0.00 22 1017.6
20260503190816 21 90 6.4 12.9 0.00 0.00 0.00 23 1017.8
20260503185816 20 89 11.3 16.1 0.00 0.00 0.00 24 1018.0
20260503184816 20 110 3.2 14.5 0.00 0.00 0.00 24 1017.8
20260503183817 20 61 6.4 12.9 0.00 0.00 0.00 24 1017.9
20260503182816 20 73 6.4 11.3 0.00 0.00 0.00 26 1018.7
20260503181816 19 123 6.4 11.3 0.00 0.00 0.00 27 1018.6
20260503180816 19 168 3.2 9.7 0.00 0.00 0.00 26 1018.7
20260503175816 19 95 6.4 11.3 0.00 0.00 0.00 25 1019.7
20260503174817 20 134 8.0 11.3 0.00 0.00 0.00 26 1019.8
20260503173816 20 134 3.2 6.4 0.00 0.00 0.00 24 1019.8
20260503172816 20 106 9.7 16.1 0.00 0.00 0.00 24 1020.2
20260503171816 20 89 4.8 6.4 0.00 0.00 0.00 25 1020.4
20260503170816 18 183 3.2 11.3 0.00 0.00 0.00 25 1020.4
20260503150816 13 83 4.8 8.0 0.00 0.00 0.00 43 1019.7
20260503130816 11 295 4.8 12.9 0.00 0.00 0.00 39 1018.9
20260503110816 10 336 3.2 9.7 0.00 0.00 0.00 45 1019.5
20260503080815 12 331 6.4 12.9 0.00 0.00 0.00 34 1020.1
20260503072817 12 338 3.2 4.8 0.00 0.00 0.00 34 1020.2
20260503071815 12 338 1.6 3.2 0.00 0.00 0.00 33 1020.2
20260503070817 12 338 4.8 6.4 0.00 0.00 0.00 34 1020.2
20260503054857 17 119 3.2 11.3 0.00 0.00 0.00 27 1020.3
20260503053816 17 336 17.7 25.7 0.00 0.00 0.00 23 1020.1
20260503052816 17 332 16.1 22.5 0.00 0.00 0.00 23 1020.0
20260503051816 17 337 12.9 20.9 0.00 0.00 0.00 22 1020.1
20260503050816 17 332 17.7 24.1 0.00 0.00 0.00 23 1020.1
20260503045816 17 328 11.3 17.7 0.00 0.00 0.00 23 1019.6
20260503044816 17 354 9.7 20.9 0.00 0.00 0.00 23 1019.6
20260503043836 17 1 11.3 29.0 0.00 0.00 0.00 23 1019.6
20260503042836 17 335 17.7 24.1 0.00 0.00 0.00 24 1019.1
20260503041816 17 335 16.1 24.1 0.00 0.00 0.00 23 1019.3
20260503040816 17 276 9.7 29.0 0.00 0.00 0.00 23 1019.2
20260503035816 17 353 9.7 19.3 0.00 0.00 0.00 23 1019.1
20260503034816 17 42 16.1 20.9 0.00 0.00 0.00 23 1019.0
20260503033816 17 329 9.7 16.1 0.00 0.00 0.00 24 1018.9
20260503032816 17 271 11.3 17.7 0.00 0.00 0.00 24 1018.6
20260503031836 17 10 1.6 6.4 0.00 0.00 0.00 24 1018.8
20260503030815 17 8 9.7 17.7 0.00 0.00 0.00 24 1018.7
20260503025815 17 3 11.3 17.7 0.00 0.00 0.00 24 1018.3
20260503024815 17 305 4.8 8.0 0.00 0.00 0.00 24 1018.4
20260503023816 17 338 6.4 9.7 0.00 0.00 0.00 24 1018.4
20260503022815 18 354 6.4 14.5 0.00 0.00 0.00 24 1018.4
20260503021815 18 359 11.3 17.7 0.00 0.00 0.00 23 1018.5
20260503020815 18 327 6.4 8.0 0.00 0.00 0.00 23 1018.7